Date String (YYYY-MM-DD hh:mm:ss) UTC,Instrument flags,Ambient pressure (hPa),Sample flow (lpm),Bypass flow (lpm),Sample temperature (°C),Ambient temperature (°C),ASC tube jacket temperature (°C),LED temperature (°C),Box temperature (°C),Sample RH (%),Span deviation,Mass concentration (μg/m³),Mass concentration (μg/m³),Mass concentration (μg/m³)
DateTimeUTC,F1_M11,P_M11,Q1_M11,Q2_M11,T1_M11,T2_M11,T3_M11,T4_M11,T5_M11,U1_M11,ZSPAN_M11,X0_M11,X2_M11,X1_M11
2023-05-02 10:00:00,,0828.7,5.00,0.00,27.6,25.9,00.0,36.0,29.1,14.8,0000.0,0016.14,0005.90,0004.36
2023-05-02 10:01:00,,0828.7,5.00,0.00,27.6,25.9,00.0,36.0,29.1,14.9,0000.0,0015.69,0005.87,0004.36
2023-05-02 10:02:00,,0828.7,4.99,0.00,27.5,25.9,00.0,36.0,29.1,14.9,0000.0,0016.33,0005.90,0004.35
2023-05-02 10:03:00,,0828.7,4.99,0.00,27.5,25.9,00.0,36.0,29.1,14.9,0000.0,0016.14,0005.89,0004.36
2023-05-02 10:04:00,,0828.8,5.01,0.00,27.5,25.9,00.0,36.0,29.1,14.9,0000.0,0016.73,0005.86,0004.36
2023-05-02 10:05:00,,0828.7,5.00,0.00,27.5,25.8,00.0,36.0,29.1,14.8,0000.0,0017.20,0005.88,0004.38
2023-05-02 10:06:00,,0828.7,5.00,0.00,27.5,25.8,00.0,36.0,29.0,14.8,0000.0,0016.77,0005.85,0004.39
2023-05-02 10:07:00,,0828.7,5.00,0.00,27.5,25.8,00.0,36.0,29.1,14.8,0000.0,0015.60,0005.80,0004.40
2023-05-02 10:08:00,,0828.8,5.00,0.00,27.5,25.8,00.0,36.0,29.1,14.7,0002.8,0014.97,0005.78,0004.41
2023-05-02 10:09:00,,0828.7,5.01,0.00,27.5,25.8,00.0,35.9,29.0,14.7,0004.0,0016.16,0005.82,0004.43
2023-05-02 10:10:00,,0828.7,5.00,0.00,27.5,25.8,00.0,35.9,29.0,14.8,0003.8,0016.40,0005.83,0004.44
2023-05-02 10:11:00,,0828.7,5.00,0.00,27.5,25.7,00.0,35.9,29.0,14.7,0003.7,0016.28,0005.83,0004.46
2023-05-02 10:12:00,,0828.7,5.00,0.00,27.5,25.7,00.0,35.9,29.0,14.7,0003.6,0016.80,0005.83,0004.47
2023-05-02 10:13:00,,0828.7,4.99,0.00,27.5,25.7,00.0,35.9,29.0,14.7,0003.9,0016.15,0005.87,0004.49
2023-05-02 10:14:00,,0828.7,4.99,0.00,27.5,25.7,00.0,35.9,29.0,14.7,0003.7,0016.50,0005.89,0004.52
2023-05-02 10:15:00,,0828.7,4.99,0.00,27.4,25.7,00.0,35.9,29.0,14.7,0003.6,0016.74,0005.93,0004.55
2023-05-02 10:16:00,,0828.7,5.00,0.00,27.4,25.7,00.0,35.9,29.0,14.7,0003.8,0016.83,0006.01,0004.56
2023-05-02 10:17:00,,0828.7,5.00,0.00,27.4,25.7,00.0,35.9,28.9,14.7,0004.1,0017.16,0006.08,0004.57
2023-05-02 10:18:00,,0828.7,5.00,0.00,27.4,25.7,00.0,35.9,28.9,14.6,0004.2,0017.51,0006.14,0004.59
2023-05-02 10:19:00,,0828.7,5.00,0.00,27.4,25.7,00.0,35.9,28.9,14.6,0004.3,0018.14,0006.16,0004.61
2023-05-02 10:20:00,,0828.7,5.01,0.00,27.4,25.7,00.0,35.8,28.9,14.6,0003.6,0016.75,0006.13,0004.61
2023-05-02 10:21:00,,0828.8,5.00,0.00,27.4,25.6,00.0,35.8,28.9,14.6,0000.8,0015.70,0006.17,0004.62
2023-05-02 10:22:00,,0828.8,4.99,0.00,27.4,25.6,00.0,35.8,28.9,14.7,0000.0,0016.29,0006.22,0004.63
2023-05-02 10:23:00,,0828.8,4.99,0.00,27.4,25.6,00.0,35.8,28.9,14.7,0000.0,0017.13,0006.27,0004.63
2023-05-02 10:24:00,,0828.8,5.00,0.00,27.3,25.6,00.0,35.8,28.9,14.7,0000.0,0017.76,0006.24,0004.64
2023-05-02 10:25:00,,0828.8,5.01,0.00,27.3,25.6,00.0,35.8,28.9,14.6,0000.0,0018.36,0006.27,0004.64
2023-05-02 10:26:00,,0828.8,5.01,0.00,27.3,25.6,00.0,35.8,28.8,14.6,0000.5,0017.62,0006.27,0004.63
2023-05-02 10:27:00,,0828.8,5.01,0.00,27.3,25.5,00.0,35.8,28.8,14.6,0000.0,0017.50,0006.23,0004.62
2023-05-02 10:28:00,,0828.8,5.00,0.00,27.3,25.5,00.0,35.8,28.8,14.6,0001.2,0017.92,0006.23,0004.63
2023-05-02 10:29:00,,0828.8,5.00,0.00,27.3,25.5,00.0,35.7,28.8,14.6,0002.7,0018.36,0006.24,0004.63
2023-05-02 10:30:00,,0828.9,4.99,0.00,27.3,25.5,00.0,35.7,28.8,14.6,0002.9,0018.86,0006.27,0004.62
2023-05-02 10:31:00,,0828.9,5.00,0.00,27.3,25.5,00.0,35.7,28.8,14.6,0003.3,0018.82,0006.24,0004.61
2023-05-02 10:32:00,,0828.8,5.01,0.00,27.3,25.5,00.0,35.7,28.8,14.6,0002.7,0019.18,0006.24,0004.61
2023-05-02 10:33:00,,0828.8,5.01,0.00,27.3,25.6,00.0,35.7,28.8,14.5,0000.0,0018.90,0006.20,0004.61
2023-05-02 10:34:00,,0828.8,4.99,0.00,27.3,25.6,00.0,35.7,28.9,14.5,0000.0,0017.39,0006.18,0004.62
2023-05-02 10:35:00,,0828.8,4.99,0.00,27.3,25.6,00.0,35.7,28.9,14.5,0000.0,0017.15,0006.20,0004.62
2023-05-02 10:36:00,,0828.8,4.99,0.00,27.3,25.6,00.0,35.7,28.9,14.5,0000.8,0016.63,0006.14,0004.63
2023-05-02 10:37:00,,0828.8,5.01,0.00,27.3,25.7,00.0,35.7,28.9,14.5,0000.0,0017.04,0006.11,0004.65
2023-05-02 10:38:00,,0828.8,5.00,0.00,27.3,25.7,00.0,35.7,28.9,14.5,0000.0,0017.46,0006.13,0004.67
2023-05-02 10:39:00,,0828.8,5.00,0.00,27.3,25.7,00.0,35.7,28.9,14.5,0002.2,0017.13,0006.08,0004.67
2023-05-02 10:40:00,,0828.9,5.01,0.00,27.3,25.7,00.0,35.7,28.9,14.5,0004.6,0016.52,0006.04,0004.68
2023-05-02 10:41:00,,0828.8,5.00,0.00,27.3,25.7,00.0,35.7,28.9,14.5,0005.1,0015.61,0006.03,0004.70
2023-05-02 10:42:00,,0828.7,5.00,0.00,27.3,25.7,00.0,35.7,28.9,14.4,0004.7,0015.73,0006.03,0004.72
2023-05-02 10:43:00,,0828.8,4.99,0.00,27.3,25.7,00.0,35.7,28.9,14.4,0004.0,0016.16,0006.09,0004.75
2023-05-02 10:44:00,,0828.8,5.00,0.00,27.3,25.7,00.0,35.7,28.9,14.5,0004.1,0016.63,0006.13,0004.77
2023-05-02 10:45:00,,0828.8,4.99,0.00,27.3,25.7,00.0,35.7,28.9,14.5,0004.1,0017.27,0006.18,0004.79
2023-05-02 10:46:00,,0828.8,5.01,0.00,27.3,25.7,00.0,35.7,28.9,14.5,0004.6,0018.81,0006.24,0004.80
2023-05-02 10:47:00,,0828.8,5.01,0.00,27.3,25.7,00.0,35.7,28.9,14.4,0003.6,0019.19,0006.32,0004.81
2023-05-02 10:48:00,,0828.8,5.00,0.00,27.3,25.7,00.0,35.7,28.9,14.5,0003.4,0019.06,0006.35,0004.81
2023-05-02 10:49:00,,0828.8,5.00,0.00,27.3,25.7,00.0,35.7,28.9,14.5,0003.7,0018.87,0006.39,0004.82
2023-05-02 10:50:00,,0828.8,5.00,0.00,27.3,25.7,00.0,35.7,28.9,14.5,0003.7,0018.97,0006.44,0004.82
2023-05-02 10:51:00,,0828.8,4.99,0.00,27.3,25.7,00.0,35.7,28.8,14.5,0003.4,0019.96,0006.51,0004.82
2023-05-02 10:52:00,,0828.8,5.00,0.00,27.3,25.7,00.0,35.7,28.8,14.5,0002.9,0020.60,0006.60,0004.82
2023-05-02 10:53:00,,0828.8,5.01,0.00,27.3,25.7,00.0,35.7,28.8,14.6,0003.3,0021.98,0006.67,0004.83
2023-05-02 10:54:00,,0828.8,5.01,0.00,27.3,25.7,00.0,35.7,28.8,14.6,0003.1,0022.37,0006.68,0004.82
2023-05-02 10:55:00,,0828.8,5.00,0.00,27.3,25.7,00.0,35.7,28.8,14.6,0003.5,0022.00,0006.69,0004.82
2023-05-02 10:56:00,,0828.8,4.99,0.00,27.3,25.7,00.0,35.7,28.8,14.6,0004.0,0021.61,0006.65,0004.80
2023-05-02 10:57:00,,0828.9,4.99,0.00,27.3,25.7,00.0,35.7,28.8,14.6,0003.8,0019.67,0006.59,0004.80
2023-05-02 10:58:00,,0828.9,5.01,0.00,27.3,25.7,00.0,35.7,28.8,14.7,0004.2,0019.00,0006.55,0004.80
2023-05-02 10:59:00,,0829.0,5.01,0.00,27.3,25.6,00.0,35.7,28.8,14.7,0004.3,0019.05,0006.58,0004.81
